Jefferson, NC

3:33 PM EDT on May 22, 2018 (GMT -0400)
Ashe County

Weather History for KGEV - December, 2001

Change the Weather History Date:

Wednesday, December 19, 2001

  Actual Average Record
Temperature  
Mean Temperature 40 °F -  
Max Temperature 51 °F 47 °F 64 °F (1967)
Min Temperature 28 °F 24 °F 6 °F (1975)
Degree Days  
Heating Degree Days 26    
Moisture  
Dew Point 27 °F    
Average Humidity 60    
Maximum Humidity 86    
Minimum Humidity 38    
Precipitation  
Precipitation 0.00 in - - ()
Sea Level Pressure  
Sea Level Pressure 29.86 in    
Wind  
Wind Speed 2 mph (WSW)    
Max Wind Speed 14 mph    
Max Gust Speed 25 mph    
Visibility 10 miles    
Events      
Averages and records for this station are not official NWS values.
T = Trace of Precipitation, MM = Missing Value Source: NWS Daily Summary

Daily Weather History Graph

Daily Weather History Graph

Search for Another Location

Airport or City:

Astronomy

Dec. 19, 2001 Rise Set
Actual Time 7:32 AM EST 5:13 PM EST
Civil Twilight 7:03 AM EST 5:42 PM EST
Nautical Twilight 6:31 AM EST 6:14 PM EST
Astronomical Twilight 6:00 AM EST 6:45 PM EST
Moon 11:15 AM EST (12/19) 9:48 PM EST (12/19)
Length of Visible Light 10h 38m
Length of Day
9h 40m
Waxing Crescent, 22% of the Moon is Illuminated
Dec 19
Waxing Crescent
Dec 22
First Quarter
Dec 30
Full
Jan 5
Last Quarter
Jan 13
New

Hourly Weather History & Observations

Time (EST) Temp. Windchill Dew Point Humidity Pressure Visibility Wind Dir Wind Speed Gust Speed Precip Events Conditions
12:00 AM 37.4 °F 30.3 °F 26.6 °F 65% 29.90 in 10.0 mi West 10.4 mph - N/A   Clear
12:20 AM 37.4 °F 34.9 °F 28.4 °F 70% 29.90 in 10.0 mi WSW 3.5 mph - N/A   Clear
12:40 AM 35.6 °F - 28.4 °F 75% 29.89 in 10.0 mi Calm Calm - N/A   Clear
1:02 AM 35.6 °F - 28.4 °F 75% 29.89 in 10.0 mi Calm Calm - N/A   Clear
1:20 AM 33.8 °F - 28.4 °F 81% 29.89 in 10.0 mi Calm Calm - N/A   Clear
1:40 AM 35.6 °F - 28.4 °F 75% 29.90 in 10.0 mi Calm Calm - N/A   Clear
2:02 AM 35.6 °F 31.7 °F 28.4 °F 75% 29.91 in 10.0 mi West 4.6 mph - N/A   Clear
2:20 AM 35.6 °F - 26.6 °F 70% 29.91 in 10.0 mi Calm Calm - N/A   Clear
2:40 AM 33.8 °F - 26.6 °F 75% 29.91 in 10.0 mi Calm Calm - N/A   Clear
3:02 AM 33.8 °F - 28.4 °F 81% 29.92 in 10.0 mi Calm Calm - N/A   Clear
3:20 AM 33.8 °F - 28.4 °F 81% 29.91 in 10.0 mi Calm Calm - N/A   Clear
3:40 AM 33.8 °F - 28.4 °F 81% 29.91 in 10.0 mi Calm Calm - N/A   Clear
4:00 AM 32.0 °F 28.7 °F 26.6 °F 80% 29.91 in 10.0 mi SW 3.5 mph - N/A   Clear
4:20 AM 33.8 °F 29.6 °F 26.6 °F 75% 29.92 in 10.0 mi WSW 4.6 mph - N/A   Clear
4:42 AM 33.8 °F - 26.6 °F 75% 29.91 in 10.0 mi Calm Calm - N/A   Clear
5:02 AM 33.8 °F - 26.6 °F 75% 29.90 in 10.0 mi Calm Calm - N/A   Clear
5:23 AM 32.0 °F - 26.6 °F 80% 29.89 in 10.0 mi Calm Calm - N/A   Clear
5:40 AM 33.8 °F 30.8 °F 26.6 °F 75% 29.89 in 10.0 mi South 3.5 mph - N/A   Clear
6:00 AM 33.8 °F 30.8 °F 26.6 °F 75% 29.90 in 10.0 mi South 3.5 mph - N/A   Clear
6:20 AM 33.8 °F - 24.8 °F 70% 29.90 in 10.0 mi Calm Calm - N/A   Clear
6:40 AM 28.4 °F - 24.8 °F 86% 29.90 in 10.0 mi Calm Calm - N/A   Clear
7:00 AM 35.6 °F - 24.8 °F 65% 29.90 in 10.0 mi Calm Calm - N/A   Clear
7:20 AM 37.4 °F - 24.8 °F 60% 29.90 in 10.0 mi Calm Calm - N/A   Clear
7:40 AM 35.6 °F - 23.0 °F 60% 29.91 in 10.0 mi Calm Calm - N/A   Clear
8:00 AM 35.6 °F - 23.0 °F 60% 29.91 in 10.0 mi Calm Calm - N/A   Clear
8:20 AM 35.6 °F - 23.0 °F 60% 29.91 in 10.0 mi Calm Calm - N/A   Clear
8:40 AM 35.6 °F - 24.8 °F 65% 29.91 in 10.0 mi Calm Calm - N/A   Clear
9:03 AM 37.4 °F - 24.8 °F 60% 29.91 in 10.0 mi Calm Calm - N/A   Clear
9:20 AM 37.4 °F - 24.8 °F 60% 29.91 in 10.0 mi Calm Calm - N/A   Clear
9:42 AM 39.2 °F - 26.6 °F 61% 29.91 in 10.0 mi Calm Calm - N/A   Clear
10:00 AM 39.2 °F - 28.4 °F 65% 29.90 in 10.0 mi Calm Calm - N/A   Clear
10:24 AM 41.0 °F - 28.4 °F 61% 29.90 in 10.0 mi Calm Calm - N/A   Clear
10:40 AM 42.8 °F - 28.4 °F 57% 29.89 in 10.0 mi Calm Calm - N/A   Clear
11:00 AM 44.6 °F 41.4 °F 28.4 °F 53% 29.89 in 10.0 mi South 5.8 mph - N/A   Clear
11:24 AM 46.4 °F 42.4 °F 28.4 °F 50% 29.86 in 10.0 mi SSE 8.1 mph - N/A   Clear
11:45 AM 48.2 °F - 30.2 °F 50% 29.85 in 10.0 mi Calm Calm - N/A   Clear
12:00 PM 48.2 °F - 30.2 °F 50% 29.85 in 10.0 mi Calm Calm - N/A   Clear
12:20 PM 48.2 °F - 28.4 °F 46% 29.83 in 10.0 mi Calm Calm - N/A   Clear
12:45 PM 48.2 °F - 28.4 °F 46% 29.82 in 10.0 mi Calm Calm - N/A   Clear
1:00 PM 48.2 °F - 28.4 °F 46% 29.81 in 10.0 mi Calm Calm - N/A   Clear
1:20 PM 48.2 °F - 28.4 °F 46% 29.79 in 10.0 mi Calm Calm - N/A   Clear
1:44 PM 50.0 °F - 28.4 °F 43% 29.79 in 10.0 mi Calm Calm - N/A   Clear
2:00 PM 50.0 °F - 28.4 °F 43% 29.79 in 10.0 mi South 4.6 mph - N/A   Clear
2:20 PM 50.0 °F - 28.4 °F 43% 29.79 in 10.0 mi Calm Calm - N/A   Clear
2:40 PM 51.8 °F - 26.6 °F 38% 29.79 in 10.0 mi Calm Calm - N/A   Clear
3:00 PM 50.0 °F - 26.6 °F 40% 29.78 in 10.0 mi Calm Calm - N/A   Clear
3:20 PM 48.2 °F - 26.6 °F 43% 29.78 in 10.0 mi Calm Calm - N/A   Clear
3:43 PM 48.2 °F - 26.6 °F 43% 29.77 in 10.0 mi Calm Calm - N/A   Clear
4:03 PM 48.2 °F - 28.4 °F 46% 29.77 in 10.0 mi Calm Calm - N/A   Clear
4:20 PM 48.2 °F - 28.4 °F 46% 29.78 in 10.0 mi Calm Calm - N/A   Clear
4:40 PM 46.4 °F - 28.4 °F 50% 29.79 in 10.0 mi Calm Calm - N/A   Clear
5:00 PM 46.4 °F - 28.4 °F 50% 29.80 in 10.0 mi Calm Calm - N/A   Clear
5:20 PM 46.4 °F - 28.4 °F 50% 29.81 in 10.0 mi Calm Calm - N/A   Clear
5:40 PM 46.4 °F - 30.2 °F 53% 29.82 in 10.0 mi Calm Calm - N/A   Clear
6:00 PM 46.4 °F 40.4 °F 26.6 °F 46% 29.82 in 10.0 mi NW 13.8 mph 25.3 mph N/A   Clear
6:20 PM 44.6 °F 39.7 °F 26.6 °F 49% 29.83 in 10.0 mi West 9.2 mph - N/A   Clear
6:40 PM 44.6 °F 39.2 °F 24.8 °F 46% 29.82 in 10.0 mi West 10.4 mph - N/A   Scattered Clouds
7:00 PM 44.6 °F 39.7 °F 24.8 °F 46% 29.83 in 10.0 mi WNW 9.2 mph - N/A   Mostly Cloudy
7:20 PM 46.4 °F 42.9 °F 24.8 °F 43% 29.82 in 10.0 mi West 6.9 mph 19.6 mph N/A   Overcast
7:40 PM 46.4 °F 41.9 °F 26.6 °F 46% 29.82 in 10.0 mi West 9.2 mph 17.3 mph N/A   Overcast
8:00 PM 46.4 °F 40.1 °F 28.4 °F 50% 29.82 in 10.0 mi West 15.0 mph 24.2 mph N/A   Mostly Cloudy
8:20 PM 44.6 °F 37.2 °F 30.2 °F 57% 29.81 in 10.0 mi West 17.3 mph 31.1 mph N/A   Mostly Cloudy
8:40 PM 42.8 °F 32.7 °F 33.8 °F 70% 29.81 in 7.0 mi West 27.6 mph 34.5 mph N/A   Drizzle
9:00 PM 39.2 °F 29.6 °F 35.6 °F 87% 29.82 in 5.0 mi West 19.6 mph 31.1 mph N/A   Drizzle
9:20 PM 41.0 °F 30.7 °F 35.6 °F 81% 29.81 in 10.0 mi WNW 25.3 mph 34.5 mph N/A   Scattered Clouds
9:40 PM 41.0 °F 31.9 °F 35.6 °F 81% 29.82 in 10.0 mi WNW 19.6 mph 34.5 mph N/A   Mostly Cloudy
10:00 PM 41.0 °F 31.9 °F 33.8 °F 76% 29.81 in 10.0 mi WNW 19.6 mph 42.6 mph N/A   Overcast
10:20 PM 41.0 °F 30.2 °F 33.8 °F 76% 29.81 in 10.0 mi WNW 27.6 mph 44.9 mph N/A   Overcast
10:40 PM 41.0 °F 30.5 °F 33.8 °F 76% 29.83 in 10.0 mi WNW 26.5 mph 43.7 mph 0.01 in Rain Light Rain
11:00 PM 41.0 °F 30.2 °F 33.8 °F 76% 29.84 in 10.0 mi WNW 27.6 mph 39.1 mph N/A   Overcast
11:22 PM 41.0 °F 30.7 °F 33.8 °F 76% 29.85 in 10.0 mi WNW 25.3 mph 33.4 mph N/A   Overcast
11:42 PM 41.0 °F 31.4 °F 32.0 °F 70% 29.85 in 10.0 mi West 21.9 mph 31.1 mph N/A   Overcast